EW0608 Weather Reports


Display with metric or nautical units.
time (UTC)temp
F
wind
direction
speed
MPH
gust
MPH
rain 1hr
in
rain 24hr
in
rain mn
in
humidity
%
barometer
mb
20260502202348 56 298 3.0 5.0 0.00 0.02 0.00 40 1011.8
20260502201859 56 15 3.0 10.0 0.00 0.02 0.00 41 1011.9
20260502201551 55 22 3.0 10.0 0.00 0.02 0.00 41 1012.0
20260502201351 55 340 4.0 10.0 0.00 0.02 0.00 42 1011.9
20260502200844 55 5 2.0 7.0 0.00 0.02 0.00 41 1011.8
20260502200358 54 360 2.0 6.0 0.00 0.02 0.00 41 1011.8
20260502200050 54 12 3.0 6.0 0.00 0.02 0.00 43 1012.0
20260502195847 54 296 2.0 5.0 0.00 0.04 0.00 43 1011.8
20260502195340 54 236 2.0 5.0 0.00 0.04 0.00 43 1011.9
20260502194913 54 346 3.0 8.0 0.00 0.04 0.00 42 1012.1
20260502194505 53 355 3.0 8.0 0.00 0.04 0.00 43 1012.3
20260502194405 54 282 4.0 8.0 0.00 0.04 0.00 42 1012.2
20260502193857 54 77 2.0 7.0 0.00 0.04 0.00 43 1012.3
20260502193408 54 317 2.0 6.0 0.00 0.04 0.00 43 1012.3
20260502193040 54 313 2.0 6.0 0.00 0.04 0.00 42 1012.5
20260502192839 54 145 3.0 6.0 0.00 0.04 0.00 41 1012.4
20260502192351 54 159 2.0 7.0 0.00 0.04 0.00 42 1012.6
20260502191844 54 334 4.0 7.0 0.00 0.04 0.00 42 1012.5
20260502191538 54 211 1.0 5.0 0.00 0.04 0.00 44 1012.7
20260502191336 54 156 3.0 5.0 0.00 0.04 0.00 42 1012.6
20260502190848 54 5 2.0 5.0 0.00 0.04 0.00 42 1012.7
20260502190402 54 17 3.0 5.0 0.00 0.04 0.00 42 1012.8
20260502190051 54 348 3.0 6.0 0.00 0.04 0.00 43 1013.0
20260502185850 55 286 2.0 6.0 0.00 0.12 0.00 43 1012.8
20260502185343 56 67 3.0 6.0 0.00 0.12 0.00 44 1012.9
20260502184854 55 336 2.0 4.0 0.00 0.12 0.00 43 1013.0
20260502184548 54 346 2.0 4.0 0.00 0.12 0.00 44 1013.2
20260502184347 54 60 2.0 4.0 0.00 0.12 0.00 46 1013.0
20260502183858 52 54 2.0 6.0 0.00 0.12 0.00 47 1013.1
20260502183350 53 300 3.0 6.0 0.00 0.12 0.00 46 1013.2
20260502183043 52 355 1.0 6.0 0.00 0.12 0.00 47 1013.4
20260502182842 53 36 3.0 4.0 0.00 0.12 0.00 46 1013.2
20260502182357 53 45 1.0 4.0 0.00 0.12 0.00 46 1013.2
20260502181928 53 101 1.0 8.0 0.00 0.12 0.00 47 1013.2
20260502181516 53 211 2.0 8.0 0.00 0.12 0.00 46 1013.4
20260502181415 53 250 3.0 8.0 0.00 0.12 0.00 46 1013.3
20260502180848 52 18 0.0 6.0 0.00 0.12 0.00 47 1013.4
20260502180341 52 360 3.0 6.0 0.00 0.12 0.00 46 1013.6
20260502170418 52 276 2.0 5.0 0.00 0.13 0.00 50 1013.7
20260502164345 52 71 3.0 7.0 0.00 0.13 0.00 51 1013.9
20260502163838 52 312 2.0 6.0 0.00 0.13 0.00 50 1013.9
20260502163350 53 331 3.0 9.0 0.00 0.13 0.00 50 1013.8
20260502163056 52 350 3.0 9.0 0.00 0.13 0.00 48 1013.9
20260502162843 53 355 4.0 9.0 0.00 0.13 0.00 50 1013.9
20260502162336 52 53 2.0 5.0 0.00 0.13 0.00 49 1014.1
20260502161850 52 178 3.0 5.0 0.00 0.13 0.00 49 1014.1
20260502161543 52 268 3.0 5.0 0.00 0.13 0.00 49 1014.3
20260502161342 52 307 2.0 5.0 0.00 0.13 0.00 50 1014.1
20260502160855 51 32 1.0 5.0 0.00 0.13 0.00 51 1014.2
20260502160348 51 5 2.0 8.0 0.00 0.13 0.00 51 1014.2
20260502151855 51 310 2.0 5.0 0.00 0.13 0.00 53 1014.4
20260502151551 50 339 2.0 5.0 0.00 0.13 0.00 54 1014.5
20260502151347 51 313 327.0 327.0 0.00 0.00 0.00 54 1014.2
20260502150845 51 13 2.0 8.0 0.00 0.13 0.00 52 1014.5
20260502150415 52 285 5.0 8.0 0.00 0.13 0.00 53 1014.3
20260502123025 44 355 3.0 6.0 0.00 0.13 0.00 68 1014.9
20260502121515 44 46 1.0 5.0 0.00 0.13 0.00 70 1014.9
20260502114514 43 181 0.0 1.0 0.00 0.13 0.00 77 1015.0
20260502113011 41 186 0.0 1.0 0.00 0.13 0.00 82 1015.0
20260502111510 40 186 0.0 0.0 0.00 0.13 0.00 85 1015.0
20260502110009 40 186 0.0 1.0 0.00 0.13 0.00 85 1014.9
20260502104514 40 186 0.0 0.0 0.00 0.13 0.00 86 1014.9
20260502103008 40 186 0.0 0.0 0.00 0.13 0.00 86 1014.9
20260502101547 40 186 0.0 0.0 0.00 0.13 0.00 87 1014.8
20260502071516 45 303 1.0 3.0 0.00 0.13 0.00 73 1014.1
20260502070017 45 15 3.0 6.0 0.00 0.13 0.00 73 1014.0
20260502064519 46 326 2.0 7.0 0.00 0.13 0.00 73 1014.0
20260502063017 46 337 3.0 4.0 0.00 0.13 0.00 74 1014.1
20260502061509 46 355 0.0 4.0 0.00 0.13 0.00 75 1014.0
20260502060007 46 106 2.0 3.0 0.00 0.13 0.00 75 1013.9
20260502054503 47 214 1.0 2.0 0.00 0.13 0.00 73 1013.9
20260502053002 47 5 0.0 3.0 0.00 0.13 0.00 71 1013.9
20260502051559 48 163 0.0 5.0 0.00 0.13 0.00 71 1013.9
20260502050058 48 117 2.0 4.0 0.00 0.13 0.00 73 1013.7
20260502044856 49 84 1.0 4.0 0.00 0.13 0.00 72 1013.3
20260502044548 48 146 0.0 4.0 0.00 0.13 0.00 71 1013.6
20260502044347 49 146 1.0 4.0 0.00 0.13 0.00 70 1013.4
20260502043840 50 123 0.0 1.0 0.00 0.13 0.00 69 1013.5
20260502043412 50 123 0.0 3.0 0.00 0.13 0.00 68 1013.5
20260502043045 50 123 0.0 7.0 0.00 0.13 0.00 67 1013.6
20260502042843 50 123 0.0 7.0 0.00 0.13 0.00 67 1013.3
20260502042355 51 64 1.0 4.0 0.00 0.13 0.00 67 1013.5
20260502041848 51 131 2.0 5.0 0.00 0.13 0.00 67 1013.6
20260502041544 50 216 1.0 5.0 0.00 0.13 0.00 68 1013.8
20260502041340 51 210 1.0 5.0 0.00 0.13 0.00 68 1013.6
20260502040934 51 60 3.0 5.0 0.00 0.13 0.00 68 1013.5
20260502040500 51 50 3.0 5.0 0.00 0.13 0.00 68 1013.3
20260502040042 51 360 1.0 6.0 0.00 0.13 0.00 70 1013.5
20260502035842 52 78 1.0 6.0 0.00 0.13 0.13 69 1013.3
20260502035339 52 17 2.0 6.0 0.00 0.13 0.13 70 1013.2
20260502034545 51 189 2.0 6.0 0.00 0.13 0.13 69 1013.4
20260502034344 52 161 1.0 3.0 0.00 0.13 0.13 69 1013.1
20260502033837 52 152 2.0 0.0 0.00 0.00 0.13 69 1012.9
20260502033348 52 157 2.0 4.0 0.00 0.13 0.13 69 1013.0
20260502033042 51 141 0.0 6.0 0.00 0.13 0.13 68 1013.3
20260502032841 52 141 0.0 6.0 0.00 0.13 0.13 68 1013.0
20260502032353 52 184 3.0 6.0 0.00 0.13 0.13 68 1013.0
20260502031907 52 53 2.0 4.0 0.00 0.13 0.13 69 1012.9
20260502031558 52 97 1.0 5.0 0.00 0.13 0.13 69 1013.1
20260502031358 52 200 1.0 3.0 0.00 0.13 0.13 68 1012.8
20260502030911 52 154 1.0 3.0 0.00 0.13 0.13 68 1012.5
20260502030346 52 222 0.0 5.0 0.00 0.13 0.13 67 1012.6
20260502030021 52 161 2.0 5.0 0.00 0.13 0.13 67 1012.9
20260502025915 52 201 3.0 4.0 0.00 0.13 0.13 67 1012.6
20260502025408 53 144 3.0 4.0 0.00 0.13 0.13 68 1012.6
20260502024840 53 46 1.0 4.0 0.00 0.13 0.13 66 1012.7
20260502024605 52 46 0.0 4.0 0.00 0.13 0.13 67 1013.0
20260502024354 53 46 2.0 4.0 0.00 0.13 0.13 67 1012.8
20260502023906 53 46 1.0 4.0 0.00 0.13 0.13 67 1012.9
20260502023338 53 52 0.0 4.0 0.00 0.13 0.13 67 1012.8
20260502023036 53 48 1.0 4.0 0.00 0.13 0.13 67 1012.8
20260502022932 53 360 0.0 2.0 0.00 0.13 0.13 66 1012.5
20260502022340 53 360 1.0 2.0 0.00 0.13 0.13 66 1012.7
20260502021853 53 155 1.0 3.0 0.00 0.13 0.13 67 1012.8
20260502021546 53 155 0.0 3.0 0.00 0.13 0.13 65 1012.9
20260502021346 53 155 2.0 3.0 0.00 0.13 0.13 66 1012.7
20260502020838 54 135 1.0 6.0 0.00 0.13 0.13 65 1012.8
20260502020353 54 84 3.0 6.0 0.00 0.13 0.13 66 1012.7
20260502020043 53 236 2.0 6.0 0.00 0.13 0.13 66 1013.0
20260502015841 54 64 0.0 7.0 0.00 0.13 0.13 65 1012.8
20260502015354 54 64 1.0 7.0 0.00 0.13 0.13 65 1012.7
20260502014846 54 301 3.0 7.0 0.00 0.13 0.13 69 1012.7
20260502014538 53 103 3.0 7.0 0.00 0.13 0.13 68 1012.9
20260502014437 54 192 3.0 5.0 0.00 0.13 0.13 69 1012.7
20260502013903 54 101 0.0 5.0 0.00 0.13 0.13 67 1012.7
20260502013355 54 101 2.0 5.0 0.00 0.13 0.13 67 1012.5
20260502013045 54 94 0.0 2.0 0.00 0.13 0.13 67 1012.9
20260502012341 54 94 0.0 2.0 0.00 0.13 0.13 63 1012.6
20260502011853 54 333 1.0 0.0 0.00 0.00 0.13 63 1012.1
20260502011545 54 333 0.0 2.0 0.00 0.13 0.13 63 1012.4
20260502011344 55 69 1.0 2.0 0.00 0.13 0.13 65 1012.1
20260502010837 55 5 1.0 5.0 0.00 0.13 0.13 61 1011.9
20260502010352 55 55 2.0 6.0 0.00 0.13 0.13 61 1011.7
20260502010101 55 304 2.0 6.0 0.00 0.13 0.13 61 1012.0
20260502005900 55 73 2.0 6.0 0.00 0.13 0.13 61 1011.6
20260502005430 56 355 327.0 327.0 0.00 0.00 0.13 60 1011.7
20260502004839 56 344 2.0 5.0 0.00 0.13 0.13 61 1011.2
20260502004526 55 289 0.0 5.0 0.00 0.13 0.13 63 1011.2
20260502003913 56 55 1.0 4.0 0.00 0.13 0.13 63 1010.4
20260502003344 56 49 1.0 0.0 0.00 0.00 0.13 68 1010.2
20260502003036 56 307 0.0 4.0 0.00 0.13 0.13 65 1010.8
20260502002835 57 307 0.0 4.0 0.00 0.13 0.13 63 1010.4
20260502002348 57 63 2.0 4.0 0.00 0.13 0.13 66 1010.1
20260502001841 56 296 2.0 3.0 0.00 0.13 0.13 63 1010.2
20260502001554 55 314 1.0 3.0 0.00 0.13 0.13 65 1010.3
20260502001353 56 314 0.0 2.0 0.00 0.13 0.13 72 1010.0
20260502000906 56 314 0.0 2.0 0.00 0.13 0.13 72 1009.9
20260502000418 56 314 0.0 3.0 0.00 0.13 0.13 72 1009.6
20260502000008 56 314 1.0 3.0 0.00 0.13 0.13 73 1009.6
20260501235907 57 314 1.0 3.0 0.00 0.13 0.13 71 1009.2
20260501235337 57 306 2.0 3.0 0.00 0.13 0.13 68 1009.7
20260501234851 57 322 1.0 3.0 0.00 0.13 0.13 68 1009.5
20260501234543 57 322 0.0 3.0 0.00 0.13 0.13 63 1009.5
20260501234343 57 322 1.0 4.0 0.00 0.13 0.13 62 1009.1
20260501233839 57 322 3.0 4.0 0.01 0.13 0.13 66 1009.1
20260501233351 57 323 2.0 4.0 0.01 0.13 0.13 69 1008.9
20260501233045 57 88 1.0 2.0 0.01 0.13 0.13 73 1009.2
20260501232844 58 88 0.0 1.0 0.01 0.13 0.13 73 1009.0
20260501232336 58 88 0.0 3.0 0.01 0.13 0.13 64 1008.9
20260501231631 58 135 0.0 2.0 0.01 0.13 0.13 63 1009.3
20260501231356 59 135 0.0 2.0 0.01 0.13 0.13 63 1009.1
20260501230848 59 135 1.0 2.0 0.01 0.13 0.13 65 1008.9
20260501230404 59 135 0.0 2.0 0.01 0.13 0.13 63 1009.0
20260501230028 59 135 1.0 3.0 0.01 0.13 0.13 62 1009.2
20260501225338 60 135 2.0 6.0 0.01 0.13 0.13 53 1009.0
20260501224851 60 145 3.0 8.0 0.01 0.13 0.13 52 1009.4
20260501224556 60 180 4.0 8.0 0.01 0.13 0.13 52 1009.7
20260501224344 60 174 4.0 6.0 0.01 0.13 0.13 55 1009.6
20260501223837 60 65 2.0 3.0 0.00 0.12 0.12 58 1009.6
20260501223408 61 71 1.0 2.0 0.00 0.12 0.12 55 1009.5
20260501223045 61 71 0.0 3.0 0.00 0.12 0.12 52 1009.6
20260501222836 62 71 1.0 3.0 0.00 0.12 0.12 49 1009.3
20260501222349 62 71 2.0 3.0 0.00 0.12 0.12 48 1009.0
20260501221842 62 88 1.0 5.0 0.00 0.12 0.12 47 1008.9
20260501221518 62 88 2.0 5.0 0.00 0.12 0.12 47 1009.2
20260501221415 62 162 1.0 3.0 0.00 0.12 0.12 48 1008.9
20260501220848 63 344 1.0 3.0 0.00 0.12 0.12 45 1008.8
20260501220341 63 107 1.0 3.0 0.00 0.12 0.12 43 1008.9
20260501220030 62 183 1.0 3.0 0.00 0.12 0.12 44 1009.2
20260501215929 63 239 2.0 3.0 0.00 0.13 0.12 43 1008.9
20260501215336 63 173 1.0 4.0 0.00 0.13 0.12 43 1008.8
20260501214908 63 216 2.0 4.0 0.00 0.13 0.12 44 1008.7
20260501214541 62 155 0.0 4.0 0.00 0.13 0.12 45 1008.9
20260501214340 63 155 0.0 4.0 0.00 0.13 0.12 46 1008.7
20260501213853 63 193 1.0 8.0 0.00 0.13 0.12 46 1008.8
20260501213345 63 134 2.0 8.0 0.00 0.13 0.12 46 1008.9
20260501213040 62 165 3.0 7.0 0.00 0.13 0.12 47 1009.3
20260501212840 63 190 4.0 6.0 0.00 0.13 0.12 44 1008.9
20260501212353 63 93 1.0 4.0 0.00 0.13 0.12 47 1008.8
20260501211906 62 129 3.0 4.0 0.00 0.13 0.12 45 1008.8
20260501211552 62 336 0.0 8.0 0.00 0.13 0.12 44 1009.3
20260501211337 62 183 2.0 8.0 0.00 0.13 0.12 45 1009.1
20260501210851 63 137 5.0 8.0 0.00 0.13 0.12 44 1008.9
20260501210344 63 217 2.0 7.0 0.00 0.13 0.12 41 1008.8
20260501210039 63 162 3.0 7.0 0.00 0.13 0.12 43 1009.1
20260501205839 64 105 2.0 4.0 0.01 0.20 0.12 43 1008.7
20260501205352 64 136 2.0 5.0 0.01 0.20 0.12 44 1008.7
20260501204904 64 144 1.0 0.0 0.00 0.00 0.12 41 1008.5
20260501204555 64 80 0.0 5.0 0.01 0.20 0.12 39 1009.0
20260501204353 64 157 1.0 7.0 0.01 0.20 0.12 39 1008.7
20260501203844 64 64 1.0 7.0 0.01 0.20 0.12 38 1008.7
20260501203336 65 332 2.0 7.0 0.01 0.20 0.12 38 1008.6
20260501203051 64 163 4.0 7.0 0.01 0.20 0.12 38 1009.0
20260501202849 65 189 2.0 7.0 0.02 0.20 0.12 38 1008.6